Track STARLINK-1190 now! 10-day predictions STARLINK-1190 is classified as:
1 45083U 20006AR 21107.92560689 -.00001038 00000-0 -50818-4 0 9994 2 45083 53.0584 27.7067 0001549 76.9048 283.2114 15.06392893 67155